GW0954 Weather Reports


time (UTC)temp
F
wind
direction
speed
knots
gust
knots
rain 1hr
in
rain 24hr
in
rain mn
in
humidity
%
barometer
mb
20260906171558 72 98 3.5 9.6 0.00 0.00 0.00 70 1021.3
20260906170051 72 115 6.1 10.4 0.00 0.00 0.00 70 1021.4
20260906164551 71 103 4.3 10.4 0.00 0.00 0.00 71 1021.7
20260906163050 71 119 7.8 12.2 0.00 0.00 0.00 71 1021.2
20260906161549 71 109 7.8 11.3 0.00 0.00 0.00 71 1021.4
20260906160047 70 104 7.8 13.0 0.00 0.00 0.00 72 1021.2
20260906154554 70 123 7.8 12.2 0.00 0.00 0.00 72 1021.3
20260906153045 70 128 8.7 11.3 0.00 0.00 0.00 72 1021.4
20260906151545 70 120 7.0 12.2 0.00 0.00 0.00 72 1021.4
20260906150046 70 105 7.8 10.4 0.00 0.00 0.00 72 1021.5
20260906144544 70 148 5.2 10.4 0.00 0.00 0.00 72 1021.3
20260906143055 70 140 4.3 7.8 0.00 0.00 0.00 72 1021.5
20260906141541 69 112 6.1 9.6 0.00 0.00 0.00 72 1021.3
20260906140045 69 101 6.1 9.6 0.00 0.00 0.00 72 1021.3
20260906134544 69 101 6.1 11.3 0.00 0.00 0.00 72 1021.3
20260906133038 69 111 6.1 8.7 0.00 0.00 0.00 72 1021.4
20260906131542 69 105 7.0 11.3 0.00 0.00 0.00 73 1021.2
20260906130041 69 121 4.3 9.6 0.00 0.00 0.00 73 1020.9
20260906124532 69 149 4.3 9.6 0.00 0.00 0.00 73 1020.7
20260906123035 68 113 4.3 7.8 0.00 0.00 0.00 73 1020.7
20260906121529 68 134 2.6 7.8 0.00 0.00 0.00 73 1020.6
20260906120027 68 128 1.7 6.1 0.00 0.00 0.00 73 1020.5
20260906114533 68 66 1.7 3.5 0.00 0.00 0.00 72 1020.3
20260906113038 68 141 1.7 4.3 0.00 0.00 0.00 72 1019.9
20260906111525 68 101 0.9 4.3 0.00 0.00 0.00 72 1019.6
20260906110021 68 122 0.9 5.2 0.00 0.00 0.00 72 1019.6
20260906104519 69 126 1.7 6.1 0.00 0.00 0.00 72 1019.5
20260906103019 69 117 2.6 5.2 0.00 0.00 0.00 72 1019.4
20260906101517 69 121 0.9 6.1 0.00 0.00 0.00 71 1019.5
20260906100015 69 117 2.6 5.2 0.00 0.00 0.00 72 1019.2
20260906094524 69 118 3.5 7.0 0.00 0.00 0.00 71 1019.3
20260906093012 70 108 3.5 7.8 0.00 0.00 0.00 71 1019.1
20260906091523 70 88 1.7 6.1 0.00 0.00 0.00 71 1019.1
20260906090008 70 133 1.7 7.0 0.00 0.00 0.00 71 1018.9
20260906084516 70 133 2.6 7.8 0.00 0.00 0.00 71 1018.6
20260906083009 71 128 2.6 4.3 0.00 0.00 0.00 71 1018.4
20260906081517 71 123 0.9 7.8 0.00 0.00 0.00 71 1018.5
20260906080004 71 102 3.5 6.1 0.00 0.00 0.00 70 1018.4
20260906074604 71 125 0.9 5.2 0.00 0.00 0.00 70 1018.5
20260906073002 71 135 2.6 6.1 0.00 0.00 0.00 70 1018.6
20260906071501 71 122 2.6 5.2 0.00 0.00 0.00 70 1018.6
20260906070000 71 85 1.7 3.5 0.00 0.00 0.00 70 1018.6
20260906064601 71 123 1.7 3.5 0.00 0.00 0.00 70 1018.6
20260906063102 71 115 1.7 6.1 0.00 0.00 0.00 70 1018.6
20260906061557 71 138 5.2 9.6 0.00 0.00 0.00 70 1018.3
20260906060054 71 73 1.7 5.2 0.00 0.00 0.00 69 1018.3
20260906054556 72 109 2.6 7.0 0.00 0.00 0.00 69 1018.1
20260906053051 72 96 0.9 4.3 0.00 0.00 0.00 68 1018.2
20260906051553 72 117 1.7 6.1 0.00 0.00 0.00 67 1018.1
20260906050110 73 105 1.7 6.1 0.00 0.00 0.00 67 1018.1
20260906044552 73 89 2.6 8.7 0.00 0.00 0.00 66 1018.2
20260906043057 73 61 0.9 6.1 0.00 0.00 0.00 66 1018.1
20260906041546 73 114 1.7 5.2 0.00 0.00 0.00 66 1018.0
20260906040047 74 102 2.6 6.1 0.00 0.00 0.00 66 1018.1
20260906034545 73 70 2.6 7.0 0.00 0.00 0.00 66 1017.8
20260906033045 73 53 2.6 4.3 0.00 0.00 0.00 66 1017.9
20260906031545 74 67 1.7 3.5 0.00 0.00 0.00 66 1017.8
20260906030043 74 77 1.7 3.5 0.00 0.00 0.00 66 1017.5
20260906024542 74 74 1.7 4.3 0.00 0.00 0.00 66 1017.0
20260906023042 75 69 1.7 4.3 0.00 0.00 0.00 66 1016.9
20260906021550 75 75 0.9 4.3 0.00 0.00 0.00 66 1016.7
20260906020041 76 74 1.7 6.1 0.00 0.00 0.00 66 1016.3
20260906014540 76 69 1.7 6.1 0.00 0.00 0.00 66 1015.8
20260906013040 77 64 1.7 3.5 0.00 0.00 0.00 66 1015.4
20260906011540 78 55 0.9 2.6 0.00 0.00 0.00 65 1015.4
20260906010042 79 49 1.7 2.6 0.00 0.00 0.00 65 1015.6
20260906004542 80 48 0.9 5.2 0.00 0.00 0.00 64 1015.9
20260906003038 80 34 3.5 5.2 0.00 0.00 0.00 64 1015.7
20260906001538 82 49 2.6 5.2 0.00 0.00 0.00 62 1015.8
20260906000036 82 78 0.9 2.6 0.00 0.00 0.00 62 1015.9
20260905234540 83 78 1.7 3.5 0.00 0.00 0.00 61 1015.8
20260905233036 84 70 1.7 4.3 0.00 0.00 0.00 59 1015.6
20260905231537 84 84 0.9 5.2 0.00 0.00 0.00 58 1015.6
20260905230035 85 86 1.7 5.2 0.00 0.00 0.00 58 1015.5
20260905224540 84 69 2.6 7.0 0.00 0.00 0.00 58 1015.4
20260905223036 85 74 1.7 5.2 0.00 0.00 0.00 57 1015.5
20260905221537 85 84 2.6 8.7 0.00 0.00 0.00 56 1015.5
20260905220033 85 67 3.5 7.8 0.00 0.00 0.00 56 1015.5
20260905214532 85 79 3.5 8.7 0.00 0.00 0.00 55 1015.2
20260905213031 87 85 7.0 11.3 0.00 0.00 0.00 52 1015.2
20260905211529 87 68 3.5 10.4 0.00 0.00 0.00 54 1015.0
20260905210040 87 134 7.0 16.5 0.00 0.00 0.00 55 1014.4
20260905204528 87 70 4.3 13.0 0.00 0.00 0.00 55 1014.7
20260905203028 87 123 4.3 13.0 0.00 0.00 0.00 55 1015.0
20260905201535 87 74 4.3 10.4 0.00 0.00 0.00 56 1015.4
20260905200033 86 98 5.2 10.4 0.00 0.00 0.00 57 1016.0
20260905194522 86 49 5.2 8.7 0.00 0.00 0.00 57 1016.2
20260905193027 86 50 5.2 11.3 0.00 0.00 0.00 56 1016.1
20260905191520 86 42 5.2 9.6 0.00 0.00 0.00 58 1016.5
20260905190018 85 34 7.8 11.3 0.00 0.00 0.00 59 1016.6
20260905184523 84 67 3.5 10.4 0.00 0.00 0.00 61 1017.1
20260905183025 83 53 4.3 10.4 0.00 0.00 0.00 60 1017.6
20260905181517 84 36 5.2 11.3 0.00 0.00 0.00 59 1017.7
20260905180015 84 65 5.2 9.6 0.00 0.00 0.00 60 1017.4
20260905174526 83 46 5.2 10.4 0.00 0.00 0.00 60 1017.7
20260905173008 83 51 4.3 8.7 0.00 0.00 0.00 60 1018.2